This is the latest recevied weather packets stored in our database for station/object JS1SZZ-13. If no packets are shown the sender has not sent any weather packets the latest 10 day(s).
| Time | Temp. | Humidity | Pressure | Rain* | Wind** | Luminosity | Snow |
|---|---|---|---|---|---|---|---|
| 1788055959 | 23.89° C | 75% | 1009.4 hPa | 0 mm | - | - | - |
| 1788055058 | 23.33° C | 73% | 1009.5 hPa | 0 mm | - | - | - |
| 1788054159 | 23.33° C | 75% | 1009.7 hPa | 0 mm | - | - | - |
| 1788053260 | 23.33° C | 77% | 1009.8 hPa | 0 mm | - | - | - |
| 1788052359 | 22.78° C | 87% | 1009.7 hPa | 0 mm | - | - | - |
| 1788051458 | 21.67° C | 88% | 1009.8 hPa | 0 mm | - | - | - |
| 1788050559 | 21.11° C | 86% | 1009.7 hPa | 0 mm | - | - | - |
| 1788049659 | 21.11° C | 87% | 1009.6 hPa | 0 mm | - | - | - |
| 1788048760 | 21.11° C | 89% | 1010.1 hPa | 0 mm | - | - | - |
| 1788047859 | 20.56° C | 89% | 1010 hPa | 0 mm | - | - | - |
| 1788046958 | 20° C | 91% | 1009.8 hPa | 0 mm | - | - | - |
| 1788046058 | 20° C | 91% | 1009.6 hPa | 0 mm | - | - | - |
| 1788045159 | 20° C | 92% | 1009.7 hPa | 0 mm | - | - | - |
| 1788044258 | 19.44° C | 93% | 1009.5 hPa | 0 mm | - | - | - |
| 1788043359 | 18.89° C | 93% | 1010 hPa | 0 mm | - | - | - |
| 1788042459 | 18.89° C | 93% | 1009.9 hPa | 0 mm | - | - | - |
| 1788041558 | 18.89° C | 93% | 1010 hPa | 0 mm | - | - | - |
| 1788040660 | 18.33° C | 93% | 1010.2 hPa | 0 mm | - | - | - |
| 1788039759 | 18.33° C | 94% | 1010.1 hPa | 0 mm | - | - | - |
| 1788038859 | 18.33° C | 94% | 1009.8 hPa | 0 mm | - | - | - |
| 1788037958 | 18.33° C | 94% | 1009.9 hPa | 0 mm | - | - | - |
| 1788037058 | 18.33° C | 94% | 1009.9 hPa | 0 mm | - | - | - |
| 1788036158 | 18.33° C | 94% | 1009.9 hPa | 0 mm | - | - | - |
| 1788035258 | 18.33° C | 94% | 1009.7 hPa | 0 mm | - | - | - |
| 1788034359 | 18.33° C | 94% | 1009.8 hPa | 0 mm | - | - | - |
* Rain latest hour (hover to see other rain measurements)
** Current wind speed in m/s (hover to see current wind gust speed)